Location: Melara
(45.0500°N, 11.1833°E)
Time: 20:21:49
(UTC+00:00)

Cosmos 1867 - Pass Details

Date: 26 May 2022
Orbit: 775 x 800 km, 65.0° (Epoch: 02 July)

Event Time Altitude Azimuth Distance (km) Brightness Sun altitude
Exits shadow 00:05:02 34° 252° (WSW) 1,295 4.4 -22.8°
Maximum altitude 00:07:09 54° 311° (NW) 970 4.1 -22.7°
Drops below altitude 10° 00:12:31 10° 28° (NNE) 2,382 7.1 -22.4°
Sets 00:15:02 0° 33° (NNE) 3,317 8.1 -22.3°
